Weather in Krasnooktyabrskiy

Russia / Mari El Republic     56°40′34″N   47°40′03″E
В апреле 2022 года жителям России запретили посещать сайт meteo.paraplan.net по решению Генеральной прокуратуры. Аудитория сайта уменьшилась в 10 раз. Владельцы сайта не видят смысла в поддержке погодного сервера в таких условиях. Сайт будет закрыт в октябре.
temp.,
°C
wind,
m/s
gust,
m/s
humid.,
%
clouds,
%
prec.,
mm/h
press.,
hPa
HPBL,
m
30 september, fri
fri3000:00+6e1398100 0.0 1017138
03:00+6ese2398100 0.1 1019111
06:00+7ese249895 0.1 1021144
09:00+9se239295 0.1 1022258
12:00+11sse2384100 0.0 1023609
15:00+11se3582100 0.0 1023583
18:00+10se3789100 0.0 1024352
21:00+8se3994100 0.0 1024256
1 october, sat
sat100:00+8se31095100 0.0 1023296
03:00+7se399666 0.0 1023251
06:00+6se399715 0.0 1023218
09:00+11sse5108385 0.0 1022403
12:00+14sse5872100 0.0 1021716
15:00+15s5875100 0.0 1020899
18:00+13sse41290100 2.1 1019518
21:00+12sse51389100 2.6 1017489
2 october, sun
sun200:00+12sse51389100 0.2 1015464
03:00+12sse51489100 0.3 1013454
06:00+12sse51488100 0.1 1012491
09:00+14s61484100 0.3 1010716
12:00+15s61186100 0.5 1009850
15:00+15ssw41084100 0.6 1009937
18:00+13ssw31090100 0.0 1010323
21:00+13ssw269294 0.1 1011164
3 october, mon
mon300:00+12ssw2293100 0.0 101147
03:00+11se2396100 0.0 101159
06:00+13se3109899 0.0 1011346
09:00+16sse51286100 0.0 1010587
12:00+19sse61368100 0.1 1011791
15:00+19sse61360100 0.1 1011959
18:00+16sse61561100 0.0 1013888
21:00+16sse71558100 0.0 1014976
4 october, tue
tue400:00+15sse6145593 0.0 10151023
03:00+14sse61452100 0.0 1016944
06:00+13sse61449100 0.0 10171022
09:00+13sse61246100 0.0 10181021
12:00+13s61350100 0.0 10201257
15:00+9s41279100 0.8 1021945
18:00+10s51185100 0.1 1023736
21:00+10s51080100 0.1 1023590